Lordsburg, NM

11:56 AM MST on November 18, 2017 (GMT -0700)
Lordsburg

Weather History for KLSB - May, 2012

Change the Weather History Date:

Tuesday, May 15, 2012

  Actual Average Record
Temperature  
Mean Temperature 68 °F -  
Max Temperature 84 °F 87 °F 89 °F (2013)
Min Temperature 53 °F 46 °F 44 °F (2014)
Cooling Degree Days 4    
Growing Degree Days 18 (Base 50)    
Moisture  
Dew Point 37 °F    
Average Humidity 35    
Maximum Humidity 67    
Minimum Humidity 15    
Precipitation  
Precipitation 0.00 in - - ()
Sea Level Pressure  
Sea Level Pressure 30.16 in    
Wind  
Wind Speed 14 mph ()    
Max Wind Speed 22 mph    
Max Gust Speed 33 mph    
Visibility 10.0 miles    
Events      
Averages and records for this station are not official NWS values.
T = Trace of Precipitation, MM = Missing Value Source: Averaged Metar Reports

Daily Weather History Graph

Daily Weather History Graph

Search for Another Location

Airport or City:

Trip Planner

Search our weather history database for the weather conditions in past years. The results will help you decide how hot, cold, wet, or windy it might be!

Date:

Astronomy

May. 15, 2012 Rise Set
Actual Time 6:12 AM MDT 8:10 PM MDT
Civil Twilight 5:44 AM MDT 8:38 PM MDT
Nautical Twilight 5:10 AM MDT 9:12 PM MDT
Astronomical Twilight 4:34 AM MDT 9:48 PM MDT
Moon 3:03 AM MDT (5/15) 3:42 PM MDT (5/15)
Length of Visible Light 14h 53m
Length of Day
13h 58m
Waning Crescent, 23% of the Moon is Illuminated
May 15
Waning Crescent
May 20
New
May 28
First Quarter
Jun 4
Full
Jun 11
Last Quarter

Hourly Weather History & Observations

Time (MDT) Temp. Dew Point Humidity Pressure Visibility Wind Dir Wind Speed Gust Speed Precip Events Conditions
12:15 AM 68.0 °F 41.0 °F 37% 30.17 in 10.0 mi SE 17.3 mph 27.6 mph N/A   Clear
12:35 AM 64.4 °F 41.0 °F 42% 30.17 in 10.0 mi SE 16.1 mph 21.9 mph N/A   Clear
12:55 AM 64.4 °F 41.0 °F 42% 30.17 in 10.0 mi SE 15.0 mph 19.6 mph N/A   Clear
1:15 AM 62.6 °F 41.0 °F 45% 30.17 in 10.0 mi SE 12.7 mph - N/A   Clear
1:35 AM 62.6 °F 41.0 °F 45% 30.17 in 10.0 mi SE 13.8 mph - N/A   Clear
1:55 AM 60.8 °F 41.0 °F 48% 30.17 in 10.0 mi SE 10.4 mph - N/A   Clear
2:15 AM 59.0 °F 41.0 °F 51% 30.17 in 10.0 mi SE 11.5 mph - N/A   Clear
2:35 AM 59.0 °F 41.0 °F 51% 30.17 in 10.0 mi SE 10.4 mph - N/A   Clear
2:55 AM 59.0 °F 41.0 °F 51% 30.16 in 10.0 mi SE 12.7 mph - N/A   Clear
3:15 AM 59.0 °F 42.8 °F 55% 30.16 in 10.0 mi SE 13.8 mph 18.4 mph N/A   Clear
3:35 AM 57.2 °F 42.8 °F 59% 30.16 in 10.0 mi SE 12.7 mph - N/A   Clear
3:55 AM 55.4 °F 42.8 °F 63% 30.16 in 10.0 mi SE 11.5 mph - N/A   Clear
4:15 AM 55.4 °F 42.8 °F 63% 30.17 in 10.0 mi SE 10.4 mph - N/A   Clear
4:35 AM 55.4 °F 42.8 °F 63% 30.17 in 10.0 mi SE 10.4 mph - N/A   Clear
4:55 AM 53.6 °F 42.8 °F 67% 30.18 in 10.0 mi SE 10.4 mph - N/A   Clear
5:15 AM 55.4 °F 42.8 °F 63% 30.18 in 10.0 mi SSE 10.4 mph - N/A   Clear
5:35 AM 53.6 °F 42.8 °F 67% 30.18 in 10.0 mi SE 10.4 mph - N/A   Clear
5:55 AM 55.4 °F 42.8 °F 63% 30.18 in 10.0 mi ESE 11.5 mph - N/A   Clear
6:15 AM 53.6 °F 42.8 °F 67% 30.19 in 10.0 mi SE 12.7 mph 17.3 mph N/A   Clear
6:35 AM 53.6 °F 42.8 °F 67% 30.19 in 10.0 mi ESE 11.5 mph - N/A   Clear
6:55 AM 53.6 °F 42.8 °F 67% 30.20 in 10.0 mi ESE 11.5 mph - N/A   Clear
7:15 AM 55.4 °F 44.6 °F 67% 30.20 in 10.0 mi ESE 11.5 mph - N/A   Clear
7:35 AM 59.0 °F 44.6 °F 59% 30.21 in 10.0 mi ESE 16.1 mph - N/A   Clear
7:55 AM 60.8 °F 44.6 °F 55% 30.21 in 10.0 mi ESE 13.8 mph - N/A   Clear
8:15 AM 62.6 °F 44.6 °F 52% 30.22 in 10.0 mi ESE 16.1 mph 20.7 mph N/A   Clear
8:35 AM 64.4 °F 44.6 °F 49% 30.22 in 10.0 mi ESE 17.3 mph 21.9 mph N/A   Clear
8:55 AM 66.2 °F 42.8 °F 43% 30.22 in 10.0 mi ESE 21.9 mph 27.6 mph N/A   Clear
9:15 AM 68.0 °F 42.8 °F 40% 30.23 in 10.0 mi ESE 19.6 mph 26.5 mph N/A   Clear
9:35 AM 69.8 °F 42.8 °F 38% 30.23 in 10.0 mi ESE 20.7 mph 27.6 mph N/A   Clear
9:55 AM 71.6 °F 42.8 °F 35% 30.23 in 10.0 mi SE 19.6 mph 28.8 mph N/A   Clear
10:15 AM 71.6 °F 42.8 °F 35% 30.23 in 10.0 mi ESE 20.7 mph 27.6 mph N/A   Clear
10:35 AM 71.6 °F 42.8 °F 35% 30.23 in 10.0 mi ESE 20.7 mph 26.5 mph N/A   Clear
10:55 AM 73.4 °F 41.0 °F 31% 30.23 in 10.0 mi ESE 17.3 mph 29.9 mph N/A   Clear
11:15 AM 75.2 °F 41.0 °F 29% 30.22 in 10.0 mi ESE 15.0 mph 23.0 mph N/A   Clear
11:35 AM 77.0 °F 41.0 °F 28% 30.21 in 10.0 mi ESE 19.6 mph 24.2 mph N/A   Clear
11:55 AM 77.0 °F 39.2 °F 26% 30.20 in 10.0 mi East 19.6 mph 25.3 mph N/A   Clear
12:15 PM 78.8 °F 37.4 °F 23% 30.19 in 10.0 mi ESE 17.3 mph 27.6 mph N/A   Clear
12:35 PM 78.8 °F 37.4 °F 23% 30.19 in 10.0 mi ESE 13.8 mph 25.3 mph N/A   Clear
12:55 PM 78.8 °F 35.6 °F 21% 30.18 in 10.0 mi ESE 21.9 mph 29.9 mph N/A   Clear
1:15 PM 80.6 °F 37.4 °F 21% 30.18 in 10.0 mi ESE 17.3 mph 29.9 mph N/A   Clear
1:35 PM 80.6 °F 35.6 °F 20% 30.17 in 10.0 mi SE 15.0 mph 33.4 mph N/A   Clear
1:55 PM 80.6 °F 37.4 °F 21% 30.16 in 10.0 mi East 15.0 mph 26.5 mph N/A   Clear
2:15 PM 82.4 °F 35.6 °F 19% 30.15 in 10.0 mi ESE 18.4 mph 28.8 mph N/A   Clear
2:35 PM 82.4 °F 33.8 °F 17% 30.14 in 10.0 mi East 17.3 mph 29.9 mph N/A   Clear
2:55 PM 82.4 °F 33.8 °F 17% 30.14 in 10.0 mi SE 19.6 mph 31.1 mph N/A   Clear
3:15 PM 82.4 °F 32.0 °F 16% 30.13 in 10.0 mi ESE 19.6 mph 28.8 mph N/A   Clear
3:35 PM 84.2 °F 32.0 °F 15% 30.12 in 10.0 mi ESE 18.4 mph 31.1 mph N/A   Clear
3:55 PM 82.4 °F 33.8 °F 17% 30.11 in 10.0 mi ESE 18.4 mph 27.6 mph N/A   Clear
4:15 PM 84.2 °F 33.8 °F 16% 30.11 in 10.0 mi SE 20.7 mph 26.5 mph N/A   Clear
4:35 PM 84.2 °F 32.0 °F 15% 30.10 in 10.0 mi SE 19.6 mph 29.9 mph N/A   Clear
4:55 PM 84.2 °F 32.0 °F 15% 30.09 in 10.0 mi ESE 15.0 mph 24.2 mph N/A   Clear
5:15 PM 82.4 °F 32.0 °F 16% 30.09 in 10.0 mi ESE 18.4 mph 25.3 mph N/A   Clear
5:35 PM 82.4 °F 32.0 °F 16% 30.08 in 10.0 mi ESE 18.4 mph 25.3 mph N/A   Clear
5:55 PM 82.4 °F 32.0 °F 16% 30.08 in 10.0 mi SE 16.1 mph 24.2 mph N/A   Clear
6:15 PM 82.4 °F 30.2 °F 15% 30.08 in 10.0 mi ESE 17.3 mph 27.6 mph N/A   Clear
6:35 PM 82.4 °F 30.2 °F 15% 30.08 in 10.0 mi SE 16.1 mph 24.2 mph N/A   Clear
6:55 PM 80.6 °F 28.4 °F 15% 30.08 in 10.0 mi ESE 11.5 mph 23.0 mph N/A   Clear
7:15 PM 80.6 °F 28.4 °F 15% 30.08 in 10.0 mi ESE 15.0 mph - N/A   Clear
7:35 PM 78.8 °F 30.2 °F 17% 30.09 in 10.0 mi ESE 15.0 mph 19.6 mph N/A   Clear
7:55 PM 77.0 °F 28.4 °F 17% 30.10 in 10.0 mi SE 11.5 mph 19.6 mph N/A   Clear
8:15 PM 73.4 °F 30.2 °F 20% 30.10 in 10.0 mi SE 10.4 mph - N/A   Clear
8:35 PM 73.4 °F 30.2 °F 20% 30.11 in 10.0 mi SE 10.4 mph - N/A   Clear
8:55 PM 71.6 °F 30.2 °F 22% 30.11 in 10.0 mi SE 11.5 mph - N/A   Clear
9:15 PM 69.8 °F 28.4 °F 21% 30.12 in 10.0 mi SE 11.5 mph - N/A   Clear
9:35 PM 68.0 °F 28.4 °F 23% 30.13 in 10.0 mi SE 11.5 mph - N/A   Clear
9:55 PM 64.4 °F 30.2 °F 28% 30.13 in 10.0 mi SE 11.5 mph - N/A   Clear
10:15 PM 62.6 °F 30.2 °F 30% 30.14 in 10.0 mi SE 9.2 mph - N/A   Clear
10:35 PM 62.6 °F 30.2 °F 30% 30.14 in 10.0 mi SE 11.5 mph - N/A   Clear
10:55 PM 60.8 °F 30.2 °F 31% 30.15 in 10.0 mi SE 11.5 mph - N/A   Clear
11:15 PM 60.8 °F 30.2 °F 31% 30.15 in 10.0 mi SE 10.4 mph - N/A   Clear
11:35 PM 60.8 °F 30.2 °F 31% 30.15 in 10.0 mi SSE 11.5 mph - N/A   Clear
11:55 PM 60.8 °F 32.0 °F 34% 30.14 in 10.0 mi SE 11.5 mph - N/A   Clear